Regional Weather Roundup
Issued by NWS Little Rock, AR

Home | Current Version | Previous Version | Text Only | Print | Product List | Glossary Off
Versions: 1 2 3 4 5 6 7 8 9 10 11 12 13 14 15 16 17 18 19 20 21 22 23 24 25 26 27 28 29 30 31 32 33 34 35 36 37 38 39 40 41 42 43 44 45 46 47 48 49 50

000
ASUS44 KLZK 302105
RWRLZK

WEATHER ROUNDUP FOR ARKANSAS
NATIONAL WEATHER SERVICE LITTLE ROCK AR
300 PM CST FRI JAN 30 2015

NOTE: "FAIR" INDICATES FEW OR NO CLOUDS BELOW 12,000 FEET WITH NO
SIGNIFICANT WEATHER AND/OR OBSTRUCTIONS TO VISIBILITY.

ARZ001-003-010-029-302200-
NORTHWEST ARKANSAS

CITY           SKY/WX    TMP DP  RH WIND       PRES   REMARKS
FAYETTEVILLE   MOSUNNY   49  22  34 CALM      30.41F
FORT SMITH     MOSUNNY   51  24  34 E7        30.42F
HARRISON       PTSUNNY   45  17  32 E5        30.43F
BENTONVILLE    MOSUNNY   48  19  32 E3        30.42F
ROGERS         MOSUNNY   47  19  33 E6        30.41F
SILOAM SPGS    MOSUNNY  N/A N/A N/A E6        30.42F
HIGHFILL       MOSUNNY   48  20  32 E6        30.40F
SPRINGDALE     SUNNY     46  21  36 CALM      30.43F
$$

ARZ004-005-016-302200-
NORTH CENTRAL ARKANSAS

CITY           SKY/WX    TMP DP  RH WIND       PRES   REMARKS
BATESVILLE     PTSUNNY   48  21  34 E3        30.46S
FLIPPIN        MOSUNNY   46  16  29 SE5       30.44F
MTN HOME       MOSUNNY   46  16  30 SW6       30.43F
$$

ARZ040-041-302200-
WEST CENTRAL ARKANSAS

CITY           SKY/WX    TMP DP  RH WIND       PRES   REMARKS
MENA           MOSUNNY   55  23  28 E6        30.39F
MOUNT IDA      MOSUNNY   52  25  35 VRB5      30.39F
$$

ARZ009-017-025-026-028-302200-
NORTHEAST ARKANSAS

CITY           SKY/WX    TMP DP  RH WIND       PRES   REMARKS
CORNING        FAIR      43  25  49 NE6       30.49S HAZE
JONESBORO      SUNNY     44  25  47 E7        30.46F
NEWPORT        MOSUNNY   45  27  49 N6        30.48F
WALNUT RIDGE   SUNNY     45  25  45 N6        30.47S
BLYTHEVILLE    SUNNY     47  25  42 N8        30.46R
$$

ARZ022-023-033-042-044-302200-
CENTRAL ARKANSAS

CITY           SKY/WX    TMP DP  RH WIND       PRES   REMARKS
LITTLE ROCK    PTSUNNY   52  22  30 E5        30.45F
N LITTLE ROCK  PTSUNNY   50  27  40 E3        30.45F
JACKSONVILLE   SUNNY     51  25  36 VRB5      30.44F
SEARCY         SUNNY     50  26  39 E7        30.46F
HOT SPRINGS    SUNNY     51  24  34 E8        30.42F
RUSSELLVILLE   MOSUNNY   51  27  39 CALM      30.43F
CLINTON        FAIR      50  23  34 S5        30.45F
$$

ARZ036-302200-
EAST ARKANSAS

CITY           SKY/WX    TMP DP  RH WIND       PRES   REMARKS
WEST MEMPHIS   SUNNY     50  25  37 VRB3      30.43F
$$

ARZ050-053-066-070-073-302200-
SOUTHWEST ARKANSAS

CITY           SKY/WX    TMP DP  RH WIND       PRES   REMARKS
ARKADELPHIA    FAIR      53  30  41 NE6       30.44F
CAMDEN         SUNNY     57  25  28 MISG      30.43S
TEXARKANA      SUNNY     53  28  38 VRB7      30.40F
EL DORADO      SUNNY     53  29  39 VRB7      30.41F
DE QUEEN       SUNNY     56  27  32 VRB5      30.39F
$$

ARZ056-057-069-302200-
SOUTHEAST ARKANSAS

CITY           SKY/WX    TMP DP  RH WIND       PRES   REMARKS
PINE BLUFF     SUNNY     49  29  46 N12G18    30.45F
STUTTGART      SUNNY     48  27  43 N12       30.46S
MONTICELLO     SUNNY     51  29  42 NE12      30.42F

$$




USA.gov is the U.S. government's official web portal to all federal, state and local government web resources and services.